Weather in Velikomikhaylovka

Russia / Belgorod Oblast     50°46′25″N   37°35′27″E
temp.,
°C
wind,
m/s
gust,
m/s
humid.,
%
clouds,
%
prec.,
mm/h
press.,
hPa
HPBL,
m
21 april, wed
wed2100:00+6ne5897100 4.6 1001422
03:00+5n5897100 10.7 1002324
06:00+5nw5992100 0.3 1005583
09:00+6w5785100 0.3 1009569
12:00+8sw5782100 0.1 10111025
15:00+11wsw697188 0.4 10121251
18:00+10wsw696910 0.5 10131051
21:00+6w37875 0.6 1016225
22 april, thu
thu2200:00+4w22915 0.0 101720
03:00+4sse119133 0.0 101810
06:00+5ssw23945 0.0 101949
09:00+10sw35713 0.0 1020469
12:00+13sw45525 0.0 10201385
15:00+15sw454617 0.0 10201933
18:00+15s355471 0.0 1019233
21:00+12s3362100 0.0 102050
23 april, fri
fri2300:00+10s34695 0.0 102066
03:00+8s347514 0.0 102066
06:00+8s368239 0.0 1020113
09:00+13s57675 0.0 1019529
12:00+15ssw795513 0.3 10181710
15:00+17ssw684392 0.8 10162429
18:00+14s5116486 0.1 1015446
21:00+12sse41170100 0.1 1014324
24 april, sat
sat2400:00+10s358597 0.6 1013169
03:00+9s61484100 0.9 1011598
06:00+8sw81291100 0.6 10101251
09:00+4w71187100 1.3 1013794
12:00+8w796584 0.4 10131519
15:00+10w8104896 0.8 10122087
18:00+8w696158 0.4 10131379
21:00+5wsw3774100 0.4 1014196
25 april, sun
sun2500:00+4wsw498395 0.3 1015274
03:00+3w378873 0.4 1015212
06:00+3wsw488997 0.0 1016329
09:00+6w576492 0.4 10161023
12:00+8wsw675094 0.8 10161967
15:00+9wsw785085 1.5 10151878
18:00+7w687083 1.1 1016947
21:00+4wsw37775 1.1 1017183